GW7141 Weather Reports


Display with metric or nautical units.
time (UTC)temp
F
wind
direction
speed
MPH
gust
MPH
rain 1hr
in
rain 24hr
in
rain mn
in
humidity
%
barometer
mb
20260502234504 62 287 11.0 16.0 0.00 0.00 0.00 36 1007.1
20260502233003 62 287 13.0 15.0 0.00 0.00 0.00 36 1006.9
20260502231503 62 282 12.0 19.0 0.00 0.00 0.00 34 1007.5
20260502230009 63 287 15.0 23.0 0.00 0.00 0.00 34 1007.6
20260502221504 63 330 17.0 21.0 0.00 0.00 0.00 32 1008.0
20260502220005 63 288 15.0 23.0 0.00 0.00 0.00 31 1007.3
20260502214505 55 348 15.0 21.0 0.00 0.00 0.00 43 1008.3
20260502210005 50 139 11.0 12.0 0.00 0.00 0.00 42 1009.1
20260502204504 49 141 7.0 10.0 0.00 0.00 0.00 44 1009.4
20260502203006 50 155 5.0 9.0 0.00 0.00 0.00 44 1009.8
20260502201509 50 147 9.0 10.0 0.00 0.00 0.00 43 1009.9
20260502194505 48 141 6.0 7.0 0.00 0.00 0.00 46 1010.6
20260502193008 47 141 5.0 7.0 0.00 0.00 0.00 47 1010.9
20260502191508 47 146 7.0 8.0 0.00 0.00 0.00 49 1011.1
20260502184523 46 147 4.0 6.0 0.00 0.00 0.00 52 1011.9
20260502183019 45 148 5.0 7.0 0.00 0.00 0.00 54 1012.2
20260502181508 44 155 4.0 6.0 0.00 0.00 0.00 58 1012.5
20260502163016 43 178 5.0 6.0 0.00 0.00 0.00 58 1014.3
20260502161513 41 183 5.0 7.0 0.00 0.00 0.00 59 1014.5
20260502151515 38 231 5.0 6.0 0.00 0.00 0.00 74 1015.5
20260502123011 39 231 0.0 2.0 0.00 0.00 0.00 72 1016.7
20260502121520 38 231 2.0 3.0 0.00 0.00 0.00 73 1016.6
20260502114520 36 231 3.0 3.0 0.00 0.00 0.00 71 1016.7
20260502113010 35 229 2.0 3.0 0.00 0.00 0.00 72 1012.5
20260502111519 34 226 2.0 3.0 0.00 0.00 0.00 78 1016.7
20260502110021 0 0.0 0.0 0.00 0.00 0.00 1015.8
20260502104520 0 0.0 0.0 0.00 0.00 0.00 1016.5
20260502103028 0 0.0 0.0 0.00 0.00 0.00 1016.7
20260502101534 0 0.0 0.0 0.00 0.00 0.00 1016.7
20260502091522 0 0.0 0.0 0.00 0.00 0.00 1016.8
20260502071509 36 226 0.0 2.0 0.00 0.00 0.00 75 1017.3
20260502070012 36 226 0.0 2.0 0.00 0.00 0.00 75 1017.4
20260502061505 37 226 1.0 1.0 0.00 0.00 0.00 69 1017.5
20260502053018 38 226 0.0 2.0 0.00 0.00 0.00 61 1017.5
20260502051528 39 226 1.0 4.0 0.00 0.00 0.00 60 1017.5
20260502050008 38 224 4.0 4.0 0.00 0.00 0.00 61 1017.6
20260502044512 38 224 2.0 3.0 0.00 0.00 0.00 67 1017.7
20260502041524 39 223 1.0 3.0 0.00 0.00 0.00 64 1017.7
20260502040022 39 221 4.0 5.0 0.00 0.00 0.00 67 1017.7
20260502030022 39 219 0.0 3.0 0.00 0.00 0.00 64 1017.8
20260502024525 39 210 0.0 2.0 0.00 0.00 0.00 62 1017.7
20260502023026 40 210 0.0 2.0 0.00 0.00 0.00 58 1017.5
20260502021518 40 210 0.0 3.0 0.00 0.00 0.00 59 1017.5
20260502014527 41 153 6.0 9.0 0.00 0.00 0.00 53 1017.3
20260502013026 40 143 7.0 9.0 0.00 0.00 0.00 60 1017.3
20260502011515 40 141 7.0 8.0 0.00 0.00 0.00 57 1017.1
20260502010023 39 140 6.0 8.0 0.00 0.00 0.00 62 1017.2
20260502003025 38 141 5.0 9.0 0.00 0.00 0.00 69 1017.2
20260502001528 38 133 10.0 11.0 0.00 0.00 0.00 64 1017.1
20260502000018 38 129 7.0 9.0 0.00 0.00 0.00 69 1017.0